Flag for USA

Past Weather in Gautier, Mississippi, USA — Yesterday and Last 2 Weeks

Now
69 °F

Fog.


Feels Like: 69 °F
Forecast: 85 / 74 °F
Wind: No wind

Location: Lott International Airport
Current Time: Sep 27, 2020 at 6:23:59 am
Latest Report: Sep 27, 2020 at 5:53 am
Visibility: 0 mi
Pressure29.91 "Hg
Humidity: 93%
Dew Point: 67 °F
Location of GautierLocation

Past Weather in Gautier — Graph

°F

Gautier Temperature Yesterday

Maximum temperature yesterday: 85 °F (at 12:53 pm)
Minimum temperature yesterday: 67 °F (at 2:53 am)
Average temperature yesterday: 76 °F

High & Low Weather Summary for the Past Weeks

 TemperatureHumidityPressure
High93 °F (Sep 13, 1:53 pm)94% (Sep 26, 9:58 pm)30.17 "Hg (Sep 26, 9:58 pm)
Low67 °F (Sep 20, 12:35 pm)52% (Sep 13, 2:53 pm)29.41 "Hg (Sep 16, 4:53 am)
Average77 °F81%29.90 "Hg
* Reported Sep 12 5:53 am — Sep 27 5:34 am, Gautier. Weather by CustomWeather, © 2020

Note: Actual official high and low records may vary slightly from our data, if they occured in-between our weather recording intervals... More about our weather records

Gautier Weather History for the Previous 24 Hours

Scroll right to see more
 ConditionsComfort  
Time TempWeatherWind HumidityBarometerVisibility
5:34 am
Sun, Sep 27
69 °FFog.No wind90%29.91 "Hg1 mi
5:05 am69 °FFog.No wind93%29.90 "Hg0 mi
4:53 am69 °FFog.No wind93%29.91 "Hg1 mi
4:32 am69 °FFog.No wind93%29.90 "Hg1 mi
3:53 am69 °FFog.No wind93%29.91 "Hg0 mi
3:42 am70 °FFog.No wind93%29.91 "Hg0 mi
3:26 am69 °FFog.No wind90%29.91 "Hg1 mi
3:14 am69 °FFog.No wind90%29.91 "Hg2 mi
2:34 am69 °FFog.No wind93%29.92 "Hg3 mi
2:16 am69 °FFog.3 mph93%29.92 "Hg2 mi
1:53 am70 °FFog.No wind90%29.93 "Hg1 mi
1:28 am70 °FFog.No wind93%29.94 "Hg3 mi
1:20 am71 °FFog.No wind90%29.94 "Hg1 mi
1:01 am70 °FFog.No wind93%29.94 "Hg2 mi
12:35 am71 °FFog.No wind93%29.95 "Hg1 mi
12:17 am70 °FFog.No wind93%29.94 "Hg1 mi
11:53 pm
Sat, Sep 26
71 °FFog.No wind93%29.95 "Hg1 mi
11:29 pm71 °FFog.No wind93%29.94 "Hg1 mi
11:18 pm71 °FFog.No wind93%29.94 "Hg1 mi
11:05 pm72 °FFog.No wind93%29.94 "Hg1 mi
10:53 pm72 °FFog.No wind93%29.94 "Hg0 mi
10:33 pm72 °FFog.No wind93%29.94 "Hg1 mi
10:21 pm73 °FFog.No wind90%29.94 "Hg2 mi
9:58 pm73 °FFog.No wind94%29.94 "Hg3 mi
9:32 pm74 °FFog.No wind91%29.94 "Hg1 mi
8:53 pm76 °FClear.No wind91%29.94 "Hg10 mi
7:53 pm77 °FClear.No wind90%29.93 "Hg10 mi
6:53 pm80 °FPassing clouds.5 mph85%29.93 "Hg10 mi
6:38 pm80 °FScattered clouds.6 mph81%29.93 "Hg10 mi
6:02 pm82 °FPartly sunny.9 mph77%29.93 "Hg10 mi
4:53 pm83 °FPartly sunny.10 mph74%29.93 "Hg10 mi
4:05 pm83 °FPartly sunny.12 mph72%29.94 "Hg10 mi
3:53 pm84 °FScattered clouds.9 mph70%29.95 "Hg10 mi
2:53 pm83 °FOvercast.5 mph68%29.96 "Hg10 mi
1:53 pm85 °FBroken clouds.9 mph61%29.97 "Hg10 mi
1:37 pm85 °FBroken clouds.9 mph63%29.98 "Hg10 mi
12:53 pm85 °FOvercast.7 mph63%30.00 "Hg10 mi
11:53 am83 °FBroken clouds.5 mph68%30.01 "Hg10 mi
10:53 am81 °FPartly sunny.6 mph69%30.02 "Hg10 mi
9:53 am78 °FMostly cloudy.7 mph76%30.02 "Hg10 mi
8:53 am74 °FMore clouds than sun.5 mph85%30.03 "Hg10 mi
7:53 am70 °FPartly sunny.3 mph90%30.01 "Hg10 mi
6:53 am68 °FScattered clouds.No wind90%30.01 "Hg7 mi
Weather by CustomWeather, © 2020

See weather overview